Regional Weather Roundup
Issued by NWS New Orleans/Baton Rouge, LA

Home | Current Version | Previous Version | Graphics & Text | Print | Product List | Glossary On
Versions: 1 2 3 4 5 6 7 8 9 10 11 12 13 14 15 16 17 18 19 20 21 22 23 24 25 26 27 28 29 30 31 32 33 34 35 36 37 38 39 40 41 42 43 44 45 46 47 48 49 50
523
ASUS44 KLIX 171505
RWRLIX
NEW ORLEANS REGIONAL WEATHER ROUNDUP
NATIONAL WEATHER SERVICE NEW ORLEANS LA
900 AM CST WED DEC 17 2014

NOTE: "FAIR" INDICATES FEW OR NO CLOUDS BELOW 12,000 FEET WITH NO
      SIGNIFICANT WEATHER AND/OR OBSTRUCTIONS TO VISIBILITY.
      SKY/WX - SKY CONDITION AND SIGNIFICANT WEATHER.
      TMP - AIR TEMPERATURE.     DP    - DEWPOINT TEMPERATURE.
      RH  - RELATIVE HUMIDITY.   PRES  - PRESSURE.
      HI  - HEAT INDEX.          WCI   - WIND CHILL INDEX.

*  THESE STATIONS ARE NOT NWS OR FAA STATIONS AND ARE NOT UNDER
   NWS QUALITY CONTROL.

LAZ038-040-048-061>063-065>067-069-171600-
SOUTHEAST LOUISIANA

CITY           SKY/WX    TMP DP  RH WIND       PRES   REMARKS
N.O. AUDUBON     N/A     53  42  67 MISG        N/A
N.O. INTL ARPT PTSUNNY   52  38  58 E9        30.30R
N.O. LAKEFRONT MOSUNNY   52  40  63 E12       30.30R
N.O. DOWNTOWN*   N/A     50  37  62 NE3       30.29S
SLIDELL        SUNNY     47  39  74 CALM      30.30R
BATON ROUGE    MOSUNNY   44  39  82 E5        30.31R
BOOTHVILLE     SUNNY     57  47  69 NE6       30.29R
BELLE CHASSE   PTSUNNY   53  44  71 NE6       30.28S
BOGALUSA*        N/A     45  39  79 NE5       30.32R
GALLIANO*      MOSUNNY   56  46  68 MISG      30.29R
NEW ROADS*       N/A     44  39  82 E5        30.31S
GONZALES*        N/A     48  42  80 MISG      30.29S
HAMMOND*       NOT AVBL
HOUMA*         SUNNY     46  41  81 NE6       30.28S
PORT FOURCHON* SUNNY     55  46  71 NE9       30.31S

$$

MSZ070-080>082-171600-
SOUTHERN MISSISSIPPI

CITY           SKY/WX    TMP DP  RH WIND       PRES   REMARKS
MCCOMB         MOSUNNY   45  37  73 NE5       30.31R
GULFPORT       SUNNY     48  38  68 NE6       30.30R
BILOXI         SUNNY     47  38  71 NE7       30.30R
PASCAGOULA     SUNNY     47  39  74 NE3       30.29R
STENNIS ARPT*  SUNNY     46  36  66 VRB5      30.31R

$$

COASTAL OBSERVATIONS
LAKE AND NEARSHORE STATIONS

STATION/POSITION TIME  TEMP    WIND        PRES    WAVE
                       AIR SEA DIR/SP/G            HT/PER
                 (UTC) (F)     (DEG/KT/KT) (MB)    (FT/S)
PASCAGOULA       1500   48      30/  5/  7 1025.0
WAVELAND YACHT   1500   48      60/  7/  8 1025.2
GRAND ISLE       1500   55 62   70/  7/ 11 1025.6
SOUTHWEST PASS   1500   56                 1025.2
NEW CANAL        1500   50 57   70/ 10/ 12 1026.0
SHELL BEACH      1500   53      50/  8/ 10 1025.4

OFFSHORE STATIONS

STATION/POSITION TIME  TEMP    WIND        PRES    WAVE
                       AIR SEA DIR/SP/G            HT/PER
                 (UTC) (F)     (DEG/KT/KT) (MB)    (FT/S)
64 S DAUPHIN ISL 1500   60 74   50/  8/ 10 1024.1    3/ 5

$$




USA.gov is the U.S. government's official web portal to all federal, state and local government web resources and services.